Weather History for London, United Kingdom

Change the Weather History Date:

Saturday, November 9, 2013

  Actual Average Record
Temperature  
Mean Temperature 42 °F -  
Max Temperature 46 °F 48 °F 62 °F (1998)
Min Temperature 39 °F 38 °F 33 °F (2001)
Degree Days  
Heating Degree Days 22    
Moisture  
Dew Point 40 °F    
Average Humidity 92    
Maximum Humidity 100    
Minimum Humidity 79    
Precipitation  
Precipitation 0.16 in - - ()
Sea Level Pressure  
Sea Level Pressure 29.71 in    
Wind  
Wind Speed 6 mph ()    
Max Wind Speed 12 mph    
Max Gust Speed -    
Visibility 6.8 miles    
Events Rain    
Averages and records for this station are not official NWS values.
T = Trace of Precipitation, MM = Missing Value Source: Averaged Metar Reports

Daily Weather History Graph

Daily Weather History Graph

Search for Another Location

Airport:

Trip Planner

Search our weather history database for the weather conditions in past years. The results will help you decide how hot, cold, wet, or windy it might be!

Date:

Astronomy

Nov. 09, 2013 Rise Set
Actual Time 7:09 AM GMT 4:21 PM GMT
Civil Twilight 6:33 AM GMT 4:57 PM GMT
Nautical Twilight 5:53 AM GMT 5:37 PM GMT
Astronomical Twilight 5:14 AM GMT 6:16 PM GMT
Moon 12:31 PM GMT (11/9) 10:42 PM GMT (11/9)
Length of Visible Light 10h 23m
Length of Day
9h 11m
Waxing Crescent, 41% of the Moon is Illuminated
Nov 9
Waxing Crescent
Nov 10
First Quarter
Nov 17
Full
Nov 25
Last Quarter
Dec 3
New

Hourly Weather History & Observations

Time (GMT) Temp. Windchill Dew Point Humidity Pressure Visibility Wind Dir Wind Speed Gust Speed Precip Events Conditions
12:00 AM 42 °F - 40 °F 88% 29.75 in 12 mi WSW 11.5 mph - -  
12:20 AM 41.0 °F 35.8 °F 41.0 °F 100% 29.74 in - WSW 8.1 mph - N/A   Clear
12:50 AM 41.0 °F 36.4 °F 39.2 °F 93% 29.74 in - WSW 6.9 mph - N/A   Clear
1:20 AM 41.0 °F 37.1 °F 39.2 °F 93% 29.77 in 6.2 mi SSW 5.8 mph - N/A   Unknown
1:50 AM 41.0 °F 38.0 °F 39.2 °F 93% 29.77 in 6.2 mi South 4.6 mph - N/A   Unknown
2:20 AM 41.0 °F 35.2 °F 39.2 °F 93% 29.77 in 6.2 mi WSW 9.2 mph - N/A   Unknown
2:50 AM 41.0 °F 35.8 °F 39.2 °F 93% 29.77 in - WSW 8.1 mph - N/A   Clear
3:00 AM 41 °F - 38 °F 84% 29.78 in 28 mi SW 9.2 mph - -  
3:20 AM 41.0 °F 36.4 °F 39.2 °F 93% 29.77 in - SW 6.9 mph - N/A   Clear
3:50 AM 41.0 °F 37.1 °F 39.2 °F 93% 29.77 in - SW 5.8 mph - N/A   Clear
4:20 AM 39.2 °F 34.2 °F 37.4 °F 93% 29.77 in - SW 6.9 mph - N/A   Clear
4:50 AM 39.2 °F 35.0 °F 37.4 °F 93% 29.77 in - SW 5.8 mph - N/A   Clear
5:20 AM 39.2 °F 35.9 °F 37.4 °F 93% 29.77 in - SW 4.6 mph - N/A   Clear
5:50 AM 39.2 °F 34.2 °F 37.4 °F 93% 29.77 in - SW 6.9 mph - N/A   Clear
6:00 AM 40 °F - 37 °F 86% 29.78 in 25 mi SW 8.1 mph - -  
6:20 AM 39.2 °F 34.2 °F 37.4 °F 93% 29.77 in - WSW 6.9 mph - N/A   Clear
6:50 AM 39.2 °F 33.6 °F 37.4 °F 93% 29.77 in - SW 8.1 mph - N/A   Clear
7:20 AM 39.2 °F 35.0 °F 37.4 °F 93% 29.77 in - South 5.8 mph - N/A   Clear
7:50 AM 39.2 °F 35.9 °F 37.4 °F 93% 29.77 in - SSE 4.6 mph - N/A   Clear
8:20 AM 39.2 °F 35.9 °F 37.4 °F 93% 29.77 in - South 4.6 mph - N/A   Clear
8:50 AM 41.0 °F 39.0 °F 39.2 °F 93% 29.74 in - Variable 3.5 mph - N/A   Clear
9:00 AM 41 °F - 38 °F 84% 29.76 in 25 mi ESE 3.5 mph - -   Mostly Cloudy
9:20 AM 42.8 °F 41.1 °F 39.2 °F 87% 29.74 in - Variable 3.5 mph - N/A   Clear
9:50 AM 42.8 °F - 41.0 °F 93% 29.74 in - Calm Calm - N/A   Clear
10:20 AM 42.8 °F 39.3 °F 41.0 °F 93% 29.74 in 3.1 mi Variable 5.8 mph - N/A Rain Light Rain Showers
10:50 AM 44.6 °F 40.7 °F 41.0 °F 87% 29.74 in 6.2 mi SW 6.9 mph - N/A Rain Light Rain
11:20 AM 42.8 °F 38.6 °F 42.8 °F 100% 29.71 in 3.7 mi SW 6.9 mph - N/A Rain Rain
11:50 AM 44.6 °F - 42.8 °F 93% 29.71 in 6.2 mi Variable 2.3 mph - N/A Rain Light Rain
12:00 PM 45 °F - 42 °F 83% 29.71 in 16 mi NW 2.3 mph - - Rain Light Rain
12:20 PM 44.6 °F 42.2 °F 42.8 °F 93% 29.68 in 6.2 mi ESE 4.6 mph - N/A   Light Drizzle
12:50 PM 44.6 °F 41.4 °F 42.8 °F 93% 29.68 in 3.7 mi ESE 5.8 mph - N/A   Light Drizzle
1:20 PM 44.6 °F 41.4 °F 42.8 °F 93% 29.65 in 6.2 mi East 5.8 mph - N/A   Mostly Cloudy
1:50 PM 44.6 °F 41.4 °F 42.8 °F 93% 29.65 in 6.2 mi ENE 5.8 mph - N/A   Mostly Cloudy
2:20 PM 46.4 °F 45.2 °F 42.8 °F 87% 29.65 in 6.2 mi Variable 3.5 mph - N/A   Scattered Clouds
2:50 PM 44.6 °F 42.2 °F 42.8 °F 93% 29.65 in 6.2 mi NNW 4.6 mph - N/A   Mostly Cloudy
3:00 PM 46 °F - 42 °F 79% 29.66 in 17 mi NNW 4.6 mph - -   Mostly Cloudy
3:20 PM 44.6 °F 41.4 °F 42.8 °F 93% 29.65 in 6.2 mi NNW 5.8 mph - N/A   Mostly Cloudy
3:50 PM 44.6 °F 43.1 °F 42.8 °F 93% 29.65 in 6.2 mi Variable 3.5 mph - N/A   Mostly Cloudy
4:20 PM 44.6 °F 42.2 °F 42.8 °F 93% 29.65 in 6.2 mi WNW 4.6 mph - N/A   Mostly Cloudy
4:50 PM 42.8 °F 40.1 °F 42.8 °F 100% 29.65 in 6.2 mi WNW 4.6 mph - N/A   Mostly Cloudy
5:20 PM 42.8 °F 39.3 °F 41.0 °F 93% 29.68 in 6.2 mi West 5.8 mph - N/A   Scattered Clouds
5:50 PM 42.8 °F 37.0 °F 41.0 °F 93% 29.68 in 6.2 mi West 10.4 mph - N/A   Partly Cloudy
6:00 PM 43 °F - 40 °F 87% 29.68 in 18 mi WSW 10.4 mph - -   Mostly Cloudy
6:20 PM 42.8 °F 38.0 °F 41.0 °F 93% 29.65 in 6.2 mi WSW 8.1 mph - N/A   Partly Cloudy
6:50 PM 42.8 °F 38.0 °F 41.0 °F 93% 29.65 in 6.2 mi SW 8.1 mph - N/A   Partly Cloudy
7:20 PM 42.8 °F 37.5 °F 41.0 °F 93% 29.68 in - West 9.2 mph - N/A   Clear
7:50 PM 42.8 °F 38.6 °F 41.0 °F 93% 29.65 in 5.6 mi SSW 6.9 mph - N/A   Unknown
8:20 PM 42.8 °F 38.6 °F 41.0 °F 93% 29.65 in 5.0 mi SSW 6.9 mph - N/A   Unknown
8:50 PM 42.8 °F 38.6 °F 41.0 °F 93% 29.65 in 5.0 mi WSW 6.9 mph - N/A   Unknown
9:00 PM 43 °F - 41 °F 89% 29.65 in 6 mi SW 6.9 mph - -   Light Haze
9:20 PM 42.8 °F 38.0 °F 41.0 °F 93% 29.62 in 4.3 mi SW 8.1 mph - N/A   Unknown
9:50 PM 44.6 °F 39.7 °F 42.8 °F 93% 29.62 in 4.3 mi WSW 9.2 mph - N/A Rain Light Rain
10:20 PM 42.8 °F 38.0 °F 42.8 °F 100% 29.62 in 3.7 mi West 8.1 mph - N/A Rain Light Rain
10:50 PM 42.8 °F 40.1 °F 42.8 °F 100% 29.62 in 5.0 mi NW 4.6 mph - N/A Rain Light Rain
11:20 PM 44.6 °F - 42.8 °F 93% 29.62 in 6.2 mi Variable 2.3 mph - N/A Rain Light Rain
11:50 PM 42.8 °F - 42.8 °F 100% 29.62 in 6.2 mi Calm Calm - N/A Rain Light Rain